This is the latest recevied weather packets stored in our database for station/object W4GAP. If no packets are shown the sender has not sent any weather packets the latest 10 day(s).
| Time | Temp. | Humidity | Pressure | Rain* | Wind** | Luminosity | Snow |
|---|---|---|---|---|---|---|---|
| 1777782296 | 11.11° C | 65% | 1013.9 hPa | 0 mm | - | 0 W/m² | - |
| 1777781992 | 11.11° C | 65% | 1013.9 hPa | 0 mm | - | 0 W/m² | - |
| 1777781689 | 11.11° C | 64% | 1014 hPa | 0 mm | - | 0 W/m² | - |
| 1777781387 | 11.11° C | 63% | 1014.2 hPa | 0 mm | - | 0 W/m² | - |
| 1777781084 | 11.11° C | 64% | 1014 hPa | 0 mm | - | 0 W/m² | - |
| 1777780781 | 11.11° C | 65% | 1014.1 hPa | 0 mm | - | 0 W/m² | - |
| 1777780478 | 11.11° C | 64% | 1014.1 hPa | 0 mm | - | 0 W/m² | - |
| 1777780176 | 11.11° C | 65% | 1014.2 hPa | 0 mm | - | 0 W/m² | - |
| 1777779873 | 11.11° C | 65% | 1014.1 hPa | 0 mm | - | 0 W/m² | - |
| 1777779569 | 11.11° C | 65% | 1014 hPa | 0 mm | - | 0 W/m² | - |
| 1777779267 | 11.11° C | 64% | 1013.8 hPa | 0 mm | - | 0 W/m² | - |
| 1777778965 | 11.67° C | 64% | 1013.9 hPa | 0 mm | - | 0 W/m² | - |
| 1777778664 | 11.67° C | 63% | 1013.9 hPa | 0 mm | - | 0 W/m² | - |
| 1777778361 | 11.67° C | 63% | 1013.8 hPa | 0 mm | - | 0 W/m² | - |
| 1777778058 | 11.67° C | 63% | 1013.9 hPa | 0 mm | - | 0 W/m² | - |
| 1777777755 | 11.67° C | 65% | 1013.4 hPa | 0 mm | - | 0 W/m² | - |
| 1777777451 | 11.67° C | 63% | 1013.8 hPa | 0 mm | - | 0 W/m² | - |
| 1777777148 | 11.67° C | 64% | 1013.7 hPa | 0 mm | - | 0 W/m² | - |
| 1777776845 | 11.67° C | 62% | 1013.5 hPa | 0 mm | - | 0 W/m² | - |
| 1777776543 | 12.22° C | 60% | 1013.1 hPa | 0 mm | - | 0 W/m² | - |
| 1777776239 | 12.22° C | 59% | 1013.2 hPa | 0 mm | - | 0 W/m² | - |
| 1777775936 | 12.22° C | 63% | 1013.2 hPa | 0 mm | - | 0 W/m² | - |
| 1777775633 | 12.22° C | 59% | 1013.1 hPa | 0 mm | - | 0 W/m² | - |
| 1777775329 | 12.22° C | 58% | 1013.1 hPa | 0 mm | - | 0 W/m² | - |
| 1777775024 | 12.78° C | 56% | 1012.9 hPa | 0 mm | - | 0 W/m² | - |
* Rain latest hour (hover to see other rain measurements)
** Current wind speed in m/s (hover to see current wind gust speed)